Find Starlink 38004

NORAD ID: 100493 Int'l Des: 2026-196 Owner: SPXS Country: US Constellation: starlink operational

現在のビュー

3D地球を読み込み中...

About Starlink 38004

Starlink 38004 (NORAD 100493) is a starlink constellation satellite launched Aug 25, 2026 by SPXS of US. with a mass of 575.00 kg.

次回通過

Passes for default location (London). Set your location on the main map for personalized predictions.

高度履歴

Loading altitude history...

軌道要素

1 A0493U 26196W 26257.60081008 -.00590602 00000-0 -35100-2 0 9990
2 A0493 53.1567 271.2150 0001095 150.5608 209.5475 15.78847541 4425
Epoch: Sep 14, 2026 • Age: 145 hours

現在のステータス

高度 355.1 km
遠地点 / 近地点 N/A
速度 7.70 km/s
衛星直下点 39.13°N, 49.81°E
打ち上げ日 Aug 25, 2026
運用期間 26 days
タイプ internet

技術仕様

分類 Payload
質量 575.00 kg
乾燥質量 530.00 kg
長さ 0.30 m
スパン 29.00 m
形状 ? Box + pan
製造者 SPXS
バスタイプ Starlink V2MO
フェーズステータス In Orbit
所有者/国 SPXS/US

Most Searched